#timestamp,LO_Frequency,Hit 
1504814415.6,286047008.7,N
1504814435.5,286047006.2,N
1504814455.3,286047006.1,N
1504814475.1,286047009.8,N
1504814495.9,286047011.1,N
1504814515.7,286047011.9,P
1504814535.5,286047002.9,N
1504814555.4,286047006.8,N
1504814575.2,286047005.8,N
1504814595.0,286047006.0,N
1504814595.9,286047006.0,N
1504814615.8,286047002.9,N
1504814635.6,286047006.7,N
1504814655.4,286047006.5,N
1504814675.3,286047005.0,N
1504814695.1,286047005.8,N
1504814715.8,286047003.6,N
1504814735.7,286047006.3,N
1504814755.5,286047006.2,N
1504814775.3,286047008.9,P
1504814795.2,286047006.0,P
1504814815.9,286047005.6,P
1504814835.7,286047006.8,P
1504814855.6,286047002.5,P
1504814875.4,286047003.0,N
1504814895.2,286047004.2,N
1504814915.1,286047001.3,N
1504814916.0,286047001.3,N
1504814935.8,286046999.7,N
1504814955.6,286047000.1,N
1504814975.5,286046999.5,N
1504814995.3,286047001.7,N
1504815015.1,286047003.6,N
1504815035.9,286047005.9,N
1504815055.7,286047001.4,N
1504815075.5,286047001.8,N
1504815095.4,286047001.5,N
1504815115.2,286047001.2,N
1504815135.0,286046998.9,N
1504815135.9,286046998.9,N
1504815155.7,286046999.7,N
1504815175.6,286046998.4,N
1504815195.4,286046998.8,N
1504815215.2,286046999.7,N
1504815235.1,286047000.5,N
1504815236.0,286047000.5,N
1504815255.8,286046999.9,N
1504815275.6,286047000.7,N
1504815295.5,286047001.1,N
1504815315.3,286047001.0,N
1504815335.1,286047002.7,N
1504815355.9,286047002.8,N
1504815375.7,286047000.0,N
1504815395.5,286047002.5,N
1504815415.4,286047002.0,N
1504815435.2,286047001.4,N
1504815455.0,286047002.3,N
1504815455.9,286047002.3,N
1504815475.7,286046996.6,N
1504815495.6,286047002.1,N
1504815515.4,286047002.6,N
1504815535.2,286047001.5,N
1504815555.1,286047004.6,N
1504815556.0,286047004.6,N
1504815575.8,286047003.4,N
1504815595.7,286047005.8,P
1504815615.5,286047001.8,N
1504815635.3,286047003.5,N
1504815655.1,286047002.9,N
1504815675.9,286047005.7,P
1504815695.7,286046999.5,N
1504815715.5,286046996.9,N
1504815735.4,286046997.7,N
1504815755.2,286046997.3,N
1504815775.0,286046998.8,N
1504815775.9,286046998.8,N
1504815795.8,286047002.4,N
1504815815.6,286046999.7,N
1504815835.4,286047000.8,N
1504815855.3,286047001.1,N
1504815875.1,286047001.4,N
1504815876.0,286047001.4,N
1504815895.8,286047003.5,N
1504815915.7,286047005.9,N
1504815935.5,286047005.8,N
1504815955.3,286047003.6,N
1504815975.2,286047007.1,N
1504815995.9,286047006.7,N
1504816015.7,286047004.6,N
1504816035.5,286047008.5,N
1504816055.4,286047008.2,N
1504816075.2,286047007.7,N
1504816095.0,286047008.0,N
1504816095.9,286047008.0,N
1504816115.8,286047006.9,N
1504816135.6,286047010.7,N
1504816155.4,286047011.9,P
1504816175.3,286047010.8,N
1504816195.1,286047010.4,N
1504816215.8,286047008.4,N
1504816235.7,286047010.7,P
1504816255.5,286047001.6,N
1504816275.3,286047004.2,N
1504816295.2,286047004.2,N
1504816315.0,286047004.5,N
1504816315.9,286047004.5,N
1504816335.7,286047005.9,N
1504816355.6,286047003.6,N
1504816375.4,286047006.0,N
1504816395.2,286047004.3,N
1504816415.1,286047007.6,P
1504816416.0,286047007.6,P
1504816435.8,286047002.6,N
1504816455.6,286046999.8,N
1504816475.5,286047002.4,N
1504816495.3,286047004.3,N
1504816515.1,286047002.2,N
1504816535.9,286047002.7,N
1504816555.7,286046999.8,N
1504816575.5,286046998.7,N
1504816595.4,286047002.8,N
1504816615.2,286047002.5,N
1504816635.0,286046998.5,N
1504816635.9,286046998.5,N
1504816655.8,286046998.1,N
1504816675.6,286047000.6,N
1504816695.4,286047000.1,N
1504816715.2,286047000.9,N
1504816735.1,286046998.4,N
1504816736.0,286046998.4,N
1504816755.8,286047002.6,N
1504816775.6,286047002.1,N
1504816795.5,286047004.2,N
1504816815.3,286047004.3,N
1504816835.1,286047001.9,N
1504816855.9,286047003.4,N
1504816875.7,286047003.3,N
1504816895.5,286047003.7,N
1504816915.4,286047004.4,N
1504816935.2,286047003.6,N
1504816955.0,286047005.6,N
1504816955.9,286047005.6,N
1504816975.8,286047005.2,N
1504816995.6,286047004.8,N
1504817015.4,286047005.2,N
1504817035.2,286047005.6,N
1504817055.1,286047005.3,N
1504817056.0,286047005.3,N
1504817075.8,286047005.2,N
1504817095.6,286047005.3,N
1504817115.5,286047003.0,N
1504817135.3,286047004.7,N
1504817155.1,286047005.5,N
1504817175.9,286047005.2,N
1504817195.7,286047007.9,P
1504817215.5,286047005.3,N
1504817235.4,286047004.9,N
1504817255.2,286047003.3,N
1504817275.0,286047004.0,N
1504817275.9,286047004.0,N
1504817295.8,286047003.9,N
1504817315.6,286047003.9,N
1504817335.4,286047003.6,N
1504817355.3,286047002.1,N
1504817375.1,286047001.5,N
1504817376.0,286047001.5,N
1504817395.8,286047003.9,N
1504817415.7,286047005.5,P
1504817435.5,286047001.5,N
1504817455.3,286047000.2,N
1504817475.2,286047002.7,N
1504817495.9,286046999.8,N
1504817515.7,286047001.6,N
1504817535.6,286047004.1,N
1504817555.4,286047004.3,N
1504817575.2,286047003.8,N
1504817595.1,286047001.5,N
1504817596.0,286047001.5,N
1504817615.8,286047002.8,N
1504817635.6,286047004.4,N
1504817655.5,286047003.3,N
1504817675.3,286047003.3,N
1504817695.1,286047005.2,P
1504817715.9,286047001.3,N
1504817735.7,286047001.6,N
1504817755.5,286047001.4,N
1504817775.3,286047002.1,N
1504817795.2,286047002.0,N
1504817815.0,286047001.8,N
1504817815.9,286047001.8,N
1504817835.7,286047002.2,N
1504817855.6,286047005.9,P
1504817875.4,286047002.5,N
1504817895.2,286047004.1,N
1504817915.1,286047001.7,N
1504817916.0,286047001.7,N
1504817935.8,286047004.2,N
1504817955.7,286047005.5,P
1504817975.5,286047001.0,N
1504817995.3,286046998.2,N
